Wind_Speed
58 57 55 53 54 58 62 66 70 71 68 67 68 69 70 70 69 68 65 61 61 61 60 60 60 60 59 59 59 58 57 56 56 56 56 55 54 54 53 52 52 51 51 51 52 52 51 51 52 52 52 52 53 53 53 52 51 52 53 54 54 53 53 54 54 54 55 55 54 54 54 53 53 52 51 50 49 48 48 48 47 47 46 44 43 42
58 54 50 51 56 61 63 66 69 68 67 69 72 72 71 70 70 68 65 61 60 60 60 59 60 60 59 59 58 57 56 55 55 55 54 53 52 52 50 49 48 46 45 46 46 45 45 45 46 46 46 47 47 47 47 46 46 47 48 50 50 50 50 52 53 53 53 53 52 52 52 52 51 49 48 47 46 46 45 45 45 44 43 42 41 40
56 51 50 54 57 58 60 65 69 69 71 73 73 72 71 71 70 68 66 62 61 61 59 58 59 60 59 58 57 57 56 54 54 53 51 50 49 48 47 45 43 42 43 42 39 39 39 40 40 41 41 41 40 40 39 39 40 41 42 44 45 45 46 48 50 51 51 50 49 48 48 48 47 45 44 43 43 43 42 42 42 41 41 40 39 38
55 52 54 54 52 55 60 65 68 70 73 74 72 71 71 70 69 68 67 63 62 61 57 57 59 58 57 57 56 56 55 54 53 49 46 45 45 45 44 42 40 41 41 39 38 37 37 38 38 38 36 35 33 32 32 32 34 36 37 39 40 40 42 44 45 46 46 45 44 44 44 43 42 41 40 40 40 39 39 39 39 39 38 37 36 35
57 56 54 51 52 58 62 64 67 69 71 71 71 71 70 70 70 70 67 63 63 61 58 58 59 57 56 55 53 54 54 52 51 47 43 41 43 44 42 40 39 40 40 39 38 37 36 35 32 30 32 32 29 27 28 30 33 34 33 35 38 37 39 41 41 42 41 40 40 39 39 38 38 38 38 38 37 37 37 37 37 37 36 35 34 33
59 56 52 53 58 60 61 62 64 68 70 70 70 69 69 69 70 70 67 65 65 63 60 60 58 55 55 54 52 53 52 49 48 47 43 42 43 41 39 38 37 40 42 39 37 35 30 25 23 30 37 32 25 24 28 30 31 31 30 33 37 37 39 40 38 38 38 38 37 37 36 36 36 36 36 36 35 35 35 35 35 35 34 33 32 31
59 55 54 58 59 58 60 61 63 67 70 70 69 69 69 69 71 70 69 68 67 64 61 59 57 55 54 53 51 50 49 47 46 44 43 43 42 40 39 39 40 43 43 38 34 26 18 19 31 43 43 32 26 28 29 27 25 26 29 33 38 38 39 39 38 38 37 37 36 35 35 35 35 35 34 33 33 34 33 33 33 32 31 30 29 29
58 55 58 59 57 56 57 58 61 65 69 70 70 70 69 71 72 71 70 70 68 63 59 58 58 56 53 52 49 48 46 44 42 42 42 42 42 42 43 44 46 45 40 32 23 15 19 32 41 44 41 36 33 33 33 29 25 28 34 37 39 40 40 40 39 38 36 36 35 35 35 35 34 32 31 30 31 31 30 30 29 28 28 28 28 29
58 57 59 59 57 56 56 58 60 64 69 71 70 71 71 73 73 72 72 72 68 63 61 60 58 55 52 50 48 46 44 41 40 40 41 42 43 44 44 45 46 41 34 22 14 18 30 35 36 40 42 41 38 37 37 34 33 35 38 38 38 39 40 40 39 38 36 35 34 34 34 33 32 30 29 30 30 30 28 26 26 26 27 28 29 30
60 60 61 59 57 56 56 58 59 63 67 68 71 73 74 74 74 74 73 71 67 64 62 59 57 54 52 50 48 45 41 39 39 40 41 42 43 44 44 44 43 37 28 20 22 36 39 33 36 45 44 41 41 38 37 37 39 40 40 40 39 38 37 36 37 38 37 35 34 33 33 32 31 30 30 31 31 28 24 24 25 27 28 30 30 31
61 63 63 60 59 57 56 57 61 65 64 66 73 76 75 75 75 74 72 71 67 62 59 57 55 55 52 50 48 43 40 40 41 41 41 41 42 43 44 43 40 34 30 32 42 49 47 46 50 52 47 45 41 37 39 42 44 43 41 40 39 36 35 34 34 37 39 38 37 35 33 32 31 31 31 30 27 24 23 25 27 28 29 30 31 33
61 63 62 61 59 57 57 59 63 64 62 66 74 76 75 75 75 74 72 70 65 58 57 57 56 55 52 50 47 43 41 42 42 42 41 41 41 42 42 40 36 35 36 43 50 51 51 56 58 52 48 46 39 33 38 45 46 43 39 35 36 36 36 36 37 37 39 39 39 37 34 32 31 29 27 25 25 25 26 27 29 30 31 32 33 34
62 63 61 60 59 58 58 60 62 62 62 66 72 74 74 74 74 72 70 65 59 56 57 56 56 54 51 49 47 45 44 43 43 43 42 42 42 41 39 36 33 36 39 44 50 53 54 58 58 53 48 45 41 36 36 40 42 40 35 30 32 35 37 39 40 37 38 38 37 36 33 30 28 27 26 27 28 28 29 30 32 33 34 35 36 35
61 61 58 58 58 57 57 58 58 59 60 63 68 71 72 72 71 67 64 59 56 57 56 55 55 53 50 49 48 47 46 46 45 44 43 42 42 40 37 34 34 37 40 43 49 54 55 55 54 53 51 48 46 44 42 41 37 35 33 27 27 33 36 37 37 36 37 38 36 35 32 30 28 30 32 32 32 32 33 34 35 36 37 37 37 36
59 56 55 56 56 55 56 56 57 59 61 63 67 70 71 70 67 64 61 58 57 57 54 54 54 50 49 50 49 50 49 47 47 45 44 44 43 40 35 34 36 39 40 43 47 50 52 52 51 53 53 50 47 47 47 45 39 35 33 28 26 30 34 34 34 36 38 39 37 34 33 32 31 32 34 34 35 36 37 37 38 39 39 38 36 35
59 57 57 57 56 55 56 56 57 59 62 64 67 70 70 68 67 66 63 60 58 55 52 54 52 49 50 50 51 53 51 50 49 47 47 47 44 40 36 36 39 40 42 44 46 47 47 47 47 50 53 50 47 46 45 43 38 34 33 34 30 26 28 31 34 36 38 37 35 33 33 34 33 35 37 38 39 39 38 39 40 40 39 37 36 35
60 59 60 59 57 57 57 57 57 59 62 65 66 67 68 68 68 66 63 60 58 54 53 55 52 49 51 52 54 55 53 52 52 50 50 48 44 40 38 39 41 41 42 43 44 45 44 43 44 47 51 50 49 47 46 43 39 34 35 39 37 31 30 32 34 34 31 28 27 30 34 36 37 38 38 39 39 39 39 39 38 37 36 35 35 35
60 59 59 59 60 61 60 58 59 62 64 63 62 64 68 69 67 65 64 61 58 56 55 54 50 48 50 52 53 54 53 54 54 53 53 49 45 42 41 42 42 41 42 42 42 42 42 42 42 45 48 49 50 49 47 45 42 38 37 41 42 37 32 32 32 32 31 30 31 34 35 37 38 38 37 38 38 37 36 36 35 35 35 35 35 36
60 58 59 61 61 62 62 61 62 64 62 60 63 66 67 66 66 67 65 60 57 55 52 51 48 47 48 51 52 53 54 55 56 56 54 51 48 45 45 45 43 42 42 41 41 40 39 40 41 44 45 45 46 46 45 46 45 42 39 42 45 42 38 36 36 38 42 44 43 39 37 38 36 34 35 36 36 35 34 34 34 34 34 35 36 37
60 59 61 63 62 62 62 62 62 62 60 62 65 64 63 65 67 67 63 59 58 55 50 49 47 46 48 50 52 54 55 56 57 57 55 53 50 48 48 46 44 43 42 41 40 38 38 39 39 40 41 41 41 41 41 43 44 44 43 42 45 47 47 46 45 46 47 46 45 42 40 38 34 34 35 36 35 35 35 35 34 35 36 37 39 40
59 59 61 62 62 60 59 59 61 62 61 62 62 60 61 65 66 66 64 61 59 54 50 50 48 47 49 51 53 56 56 56 56 56 54 53 51 50 49 47 44 43 42 41 39 38 38 38 38 39 40 40 40 39 38 39 40 41 41 42 43 46 48 48 46 45 43 41 41 41 40 38 36 36 38 38 37 36 37 38 38 39 40 41 42 41
58 58 59 59 58 58 58 61 63 64 63 62 62 61 62 64 64 66 64 61 58 54 51 49 49 49 50 52 55 55 54 54 55 54 52 51 50 50 49 47 45 44 43 42 40 39 38 37 37 38 39 40 43 41 37 37 38 38 38 39 41 43 45 45 43 41 40 40 40 39 40 39 39 39 40 40 41 41 43 44 44 45 44 43 43 42
56 56 56 56 57 59 60 62 62 63 63 64 65 65 64 64 64 64 63 61 59 54 50 49 50 50 50 53 54 53 52 54 54 53 51 50 50 50 49 48 46 46 46 44 41 40 40 40 39 38 38 40 43 40 34 33 36 37 37 39 40 42 44 44 42 41 40 39 39 40 41 42 42 42 42 44 45 47 49 50 50 49 47 45 44 44
55 56 56 57 58 59 60 63 65 65 65 65 64 63 62 61 62 64 65 64 60 54 50 50 51 50 50 53 54 52 52 53 52 51 50 49 50 51 50 49 48 48 47 44 42 41 42 42 41 39 40 41 40 38 35 35 34 34 37 38 39 41 42 42 42 40 38 38 38 39 40 42 43 43 45 47 50 52 54 54 53 50 48 46 46 45
54 55 56 57 59 59 61 64 64 63 62 60 59 59 58 59 63 66 67 65 61 56 54 53 52 52 52 53 54 52 51 52 52 50 49 50 51 51 51 50 49 49 47 45 44 44 45 45 42 39 41 43 43 41 39 37 35 33 34 36 38 39 40 39 39 37 37 38 38 40 42 43 45 47 49 52 53 55 55 54 52 50 48 47 47 46
53 54 55 57 57 58 59 59 57 55 55 56 57 59 59 60 62 64 64 64 62 59 57 55 53 53 52 52 52 52 51 51 51 51 50 50 50 51 51 50 50 50 48 47 47 48 49 49 47 44 43 45 46 45 43 41 38 36 35 35 36 37 37 36 36 36 36 37 39 42 44 46 48 51 52 54 55 55 54 53 52 51 50 49 48 48
50 51 53 55 56 58 59 59 57 56 57 57 58 59 60 60 61 62 62 63 63 60 57 55 53 52 52 51 51 51 50 50 51 51 51 50 50 50 51 50 51 51 50 50 50 50 50 50 48 46 46 47 47 46 44 44 42 40 38 37 36 36 36 35 35 35 36 37 39 41 42 45 47 50 52 54 55 55 54 53 53 52 51 50 50 49
48 49 51 53 55 57 58 59 58 58 59 58 58 59 59 59 60 61 61 63 63 59 56 56 54 53 53 52 52 51 50 50 51 51 51 50 50 50 51 51 51 51 51 51 51 51 52 51 50 47 46 47 47 44 42 41 41 40 39 39 39 39 39 39 38 38 38 39 40 42 43 44 46 48 50 51 52 53 53 53 53 52 51 51 51 50
47 48 50 51 54 56 56 57 58 60 60 60 60 60 60 60 60 60 61 63 62 59 58 57 55 55 55 54 53 51 50 50 50 50 50 49 49 50 50 51 51 51 51 51 52 53 52 52 51 50 47 46 45 43 42 39 38 37 38 39 39 40 42 42 42 42 43 44 46 46 46 47 48 49 50 50 51 52 52 52 53 53 52 52 52 51
47 48 50 51 53 54 55 57 58 58 58 59 60 61 60 60 61 61 62 63 64 63 62 59 57 57 57 55 53 51 51 50 50 50 50 49 49 49 49 50 51 51 51 50 51 53 52 50 49 50 50 47 44 41 38 35 34 35 38 39 39 41 45 47 46 47 49 49 49 48 48 49 50 51 51 52 53 53 54 54 53 53 53 52 52 52
48 49 50 51 53 54 55 56 57 58 58 58 59 59 59 59 60 62 63 64 66 66 64 61 59 58 56 55 52 51 51 52 51 50 50 49 49 49 49 49 50 49 49 50 50 50 49 48 47 47 47 46 43 38 33 29 30 33 37 40 40 40 43 45 46 47 49 50 50 50 50 51 53 54 55 56 57 58 58 57 56 55 54 53 53 54
46 47 48 50 52 53 55 56 57 57 58 58 57 58 58 57 59 60 61 63 66 66 65 63 61 59 56 55 52 51 52 53 52 52 50 50 50 49 49 49 49 48 48 48 48 48 46 44 42 42 40 40 40 38 33 30 31 36 42 46 46 45 46 47 46 47 49 51 52 53 54 55 57 58 59 61 61 61 60 59 58 56 55 55 55 56
45 46 48 50 51 52 54 56 57 58 58 58 57 57 56 56 58 59 60 62 66 67 66 64 62 60 58 56 53 53 53 53 53 53 52 52 51 50 50 50 49 48 48 47 46 45 43 40 37 36 34 35 38 37 34 34 37 44 50 51 51 52 54 55 54 54 54 54 54 55 56 58 59 61 62 63 63 63 63 62 61 60 58 57 57 57
45 46 47 48 49 50 53 55 57 58 58 57 57 57 57 56 57 59 60 63 67 68 66 64 63 62 60 57 56 55 54 54 54 54 53 52 52 51 51 50 49 48 47 47 45 43 41 39 36 35 35 38 43 44 43 44 46 49 52 52 52 53 56 57 57 56 56 55 55 56 57 58 60 61 63 64 64 65 65 65 65 63 62 61 61 62
43 44 45 47 48 50 53 55 57 57 57 57 57 58 57 56 58 59 61 63 67 68 67 66 64 62 60 58 57 54 53 53 53 53 52 51 51 51 50 50 49 48 45 44 44 43 41 39 38 39 43 46 49 50 50 52 54 55 56 55 56 57 57 58 58 59 59 59 59 60 61 62 62 63 64 65 66 66 66 67 67 66 67 68 68 68
41 42 43 44 46 49 51 53 54 54 56 57 57 57 57 57 59 60 61 63 66 68 68 66 64 62 60 58 56 53 52 52 53 53 53 51 50 50 50 51 52 51 47 43 42 40 39 39 40 44 49 50 50 51 52 54 56 58 60 60 60 61 61 61 62 63 64 64 64 65 66 66 67 68 68 69 69 69 69 70 70 71 72 73 73 71
39 40 41 42 44 46 48 49 51 53 55 57 57 57 57 58 59 61 61 62 65 67 67 66 64 62 60 57 55 54 53 53 54 54 53 53 52 51 52 52 52 52 49 46 43 43 44 45 45 47 50 50 51 53 55 56 57 59 60 61 62 63 64 64 65 66 68 69 69 70 70 71 71 72 73 73 73 74 74 74 75 76 76 75 74 73
36 38 39 41 42 44 46 47 49 51 53 54 55 56 56 58 59 60 60 61 65 67 68 66 65 62 60 58 57 55 54 53 54 55 55 55 54 53 53 53 52 52 52 50 48 49 50 51 50 49 49 50 51 54 56 57 58 59 61 62 62 63 64 66 67 69 70 71 73 74 74 75 75 76 76 76 77 77 78 78 78 77 76 75 73 72
35 36 38 40 41 42 44 45 47 49 51 53 54 55 56 58 59 58 58 59 62 66 68 67 66 64 62 61 59 56 54 54 55 57 58 57 57 56 55 54 54 53 52 52 52 51 51 52 52 51 51 52 53 55 55 55 56 58 60 61 63 64 65 67 68 70 71 73 74 76 77 77 78 78 78 78 79 79 79 79 78 76 74 73 71 70
34 36 38 40 41 42 43 44 46 49 51 53 54 55 57 58 57 56 56 56 59 65 68 68 67 66 65 63 61 58 57 56 57 58 59 58 58 57 56 55 55 54 52 52 52 51 50 51 51 51 51 53 55 55 55 54 55 56 58 59 61 62 64 65 68 70 72 74 75 76 78 78 79 79 79 79 79 79 79 79 78 76 75 73 72 70
34 36 38 40 41 42 43 44 46 48 50 51 53 55 55 55 54 53 55 56 59 64 67 68 67 67 65 63 62 60 59 58 58 58 58 58 57 56 55 55 54 54 54 53 52 51 50 50 50 50 50 51 53 54 54 55 56 57 59 60 60 61 63 64 66 69 71 73 75 76 77 78 78 78 78 78 78 78 78 78 77 77 77 76 74 71
33 35 38 40 41 42 42 43 44 46 48 49 52 53 53 53 53 54 57 60 62 65 67 68 68 67 66 64 62 60 59 58 58 58 58 57 57 56 56 55 55 54 54 54 53 52 51 50 51 51 52 52 53 54 55 55 57 58 60 60 61 62 64 65 67 68 70 72 74 75 76 77 77 76 76 75 75 75 74 74 73 73 72 71 69 67
33 35 38 40 42 42 42 43 43 44 46 48 50 51 52 53 55 57 60 62 63 64 66 68 68 67 66 64 62 60 59 58 57 57 56 55 55 55 54 54 54 53 53 52 52 52 52 52 53 54 55 55 55 55 56 57 58 59 61 62 63 64 66 68 69 70 72 73 75 76 76 76 76 75 74 73 71 70 69 68 67 65 64 63 62 61
33 36 38 40 42 43 44 45 45 46 47 48 49 50 52 54 56 57 59 60 61 63 65 66 67 67 66 64 63 61 60 58 56 55 54 54 53 53 53 53 53 53 53 53 53 53 54 54 55 56 57 56 56 56 57 59 60 61 63 65 66 66 68 70 72 73 74 75 76 76 76 76 74 72 71 69 68 66 64 64 62 61 59 58 58 58
32 35 37 40 42 44 45 46 46 47 47 48 49 50 51 53 54 55 56 57 59 61 63 65 66 66 66 65 64 62 60 59 57 56 55 54 53 53 53 53 54 54 54 54 55 55 55 56 57 57 57 57 57 58 59 60 61 62 64 65 66 67 68 70 71 73 74 75 75 75 75 74 72 70 68 67 65 64 62 60 59 58 57 57 57 57
30 33 35 38 40 42 43 44 45 45 46 47 48 49 50 51 52 52 53 54 56 59 61 63 65 66 66 66 65 64 63 61 60 58 57 55 54 54 54 55 55 56 56 56 57 57 57 57 58 58 58 58 59 59 60 61 61 62 63 64 66 67 68 69 69 70 71 72 72 72 72 71 70 68 66 65 63 61 59 58 57 56 56 56 56 56
29 31 33 35 37 39 41 43 44 44 45 46 47 48 49 50 50 51 51 52 54 56 59 61 63 65 66 66 66 65 65 64 62 60 58 57 56 55 55 56 57 57 57 58 58 57 58 58 59 59 59 60 60 61 61 61 62 63 63 64 65 66 67 67 67 67 67 68 68 68 68 67 66 65 64 62 61 59 57 56 56 55 55 55 55 56
29 30 31 33 35 37 39 41 42 43 44 45 47 48 49 50 50 51 51 51 52 54 56 59 61 64 65 66 67 66 66 65 63 60 59 58 56 55 56 56 56 57 58 58 58 58 58 59 59 60 60 61 61 61 61 61 61 62 62 62 62 63 63 63 64 64 64 64 64 64 63 62 61 61 61 60 59 58 57 56 55 54 54 55 57 58
29 30 31 33 34 36 37 39 41 42 43 44 46 47 49 50 51 51 51 51 52 53 55 56 58 61 63 65 66 66 66 64 62 61 59 58 56 55 55 56 57 60 61 60 59 59 60 60 60 61 62 62 61 61 60 60 60 60 59 59 59 59 58 58 59 60 61 61 61 60 59 58 57 58 58 57 57 56 55 55 55 55 56 57 58 58
29 31 32 33 35 36 37 39 41 42 44 45 46 47 48 49 50 50 50 50 51 52 54 55 57 59 61 63 64 64 64 63 62 61 60 58 56 55 56 58 61 62 62 61 61 62 62 62 62 62 62 61 60 60 59 58 57 56 55 54 53 53 53 52 52 53 56 57 58 58 57 56 56 56 56 56 56 56 56 56 56 56 56 56 55 55
30 31 32 34 35 36 38 39 41 42 44 46 47 48 48 49 49 49 49 50 50 51 52 54 55 57 59 60 61 61 62 62 61 61 60 58 56 56 58 59 59 60 60 61 62 62 61 61 61 61 60 59 58 57 57 55 53 52 50 49 48 47 46 45 45 47 51 54 56 56 57 56 56 57 57 57 57 57 56 56 55 54 54 54 54 55
Wind_Direction
236 236 237 236 234 233 231 230 229 228 228 229 230 230 231 232 232 233 233 232 233 234 234 234 235 236 236 236 237 238 238 238 240 242 244 245 247 249 250 252 253 253 255 256 258 259 260 261 262 264 265 266 267 267 268 270 271 272 272 273 273 273 273 273 274 274 275 276 277 279 280 280 281 283 284 286 287 288 289 290 291 292 292 292 293 294
235 235 236 234 231 230 228 228 227 226 225 226 228 228 230 232 232 232 232 231 232 233 234 234 235 236 236 236 237 238 238 238 239 240 242 244 246 248 250 251 254 256 256 256 258 260 261 262 264 265 266 266 266 268 269 271 272 272 273 273 274 275 274 274 274 275 275 276 277 278 279 280 281 283 284 286 286 287 288 289 291 291 291 292 293 294
234 233 233 233 231 230 229 228 227 224 223 224 226 227 228 231 232 232 231 229 230 232 233 233 234 235 236 237 238 238 238 238 238 239 241 244 245 247 249 251 253 255 255 256 259 260 261 263 264 265 265 266 267 269 271 272 273 273 273 273 274 274 274 274 274 274 275 276 277 277 278 279 281 283 284 285 286 287 288 290 290 290 291 292 294 296
232 230 231 232 232 231 229 228 226 225 224 224 225 226 227 229 231 231 230 229 229 230 231 232 233 234 236 237 237 238 238 238 239 239 240 244 247 247 248 249 250 252 254 255 257 258 261 263 265 268 269 268 268 270 272 275 275 274 275 275 274 273 272 271 271 272 273 275 276 277 278 280 282 283 284 285 286 288 289 289 289 291 292 294 296 296
230 228 228 229 230 229 228 227 226 225 225 225 225 226 227 228 230 231 230 229 229 229 228 229 231 232 234 235 236 237 238 239 240 239 237 238 242 245 246 248 250 252 252 253 256 259 263 269 276 279 270 262 258 259 265 272 276 276 275 274 275 274 272 270 270 272 274 275 276 278 280 281 282 283 284 286 287 288 289 289 290 292 294 295 296 296
228 227 227 228 228 228 227 226 225 224 224 225 225 226 227 228 229 230 229 228 228 227 227 228 230 230 232 233 234 236 238 239 239 239 236 233 234 239 245 248 249 251 252 252 255 260 269 281 280 266 257 252 248 249 253 257 264 269 265 266 271 272 271 272 273 274 276 277 279 280 281 282 283 284 286 288 289 289 290 291 292 294 294 295 296 297
227 226 226 228 228 229 228 226 224 223 223 224 224 225 226 227 229 229 229 228 227 226 226 228 229 230 231 232 233 235 236 238 238 238 237 234 231 231 234 237 238 242 247 249 253 261 273 264 250 250 251 248 243 245 249 246 246 252 252 258 265 267 271 274 275 276 277 279 281 282 283 283 284 286 287 289 289 290 291 292 293 294 295 296 297 299
226 225 227 228 228 229 228 227 226 224 223 222 223 224 225 226 228 228 228 227 227 226 226 227 228 229 230 232 234 235 236 237 237 237 236 235 233 230 228 230 233 236 241 245 252 261 254 245 246 251 253 249 243 243 248 243 232 239 249 255 262 267 272 274 274 276 277 277 279 280 282 283 284 285 286 288 289 290 290 292 294 295 296 298 300 302
224 224 227 228 227 227 227 226 226 225 223 221 222 224 224 225 227 226 227 227 225 224 224 225 227 228 229 232 234 234 235 236 236 236 235 234 233 232 230 231 232 233 232 232 236 239 240 245 253 257 256 253 248 244 247 244 234 238 249 258 264 269 271 272 274 276 277 277 276 277 279 281 281 282 284 285 286 287 288 290 293 295 297 300 302 305
223 223 225 226 226 225 225 224 224 225 224 221 221 223 224 225 226 226 226 226 225 223 224 224 226 227 228 229 232 233 234 234 234 233 233 232 232 232 231 231 231 228 219 208 217 228 226 226 242 248 248 249 247 246 248 247 244 246 254 263 267 268 269 272 274 274 275 275 274 276 276 277 279 281 283 284 284 285 286 289 293 296 299 301 304 306
222 223 224 225 225 224 223 223 223 223 222 220 221 223 223 224 226 226 226 226 225 223 224 225 226 227 227 228 230 230 230 230 230 230 230 230 231 232 231 230 229 221 208 202 214 222 216 215 228 236 236 239 244 248 249 246 247 252 258 263 265 266 268 270 273 273 272 271 272 275 275 275 278 280 281 282 282 284 287 291 294 297 299 302 304 306
224 225 225 225 225 225 223 222 223 223 220 219 222 224 224 224 225 226 226 226 225 223 224 225 225 226 226 227 228 228 228 229 229 230 229 228 229 230 231 230 227 219 211 209 216 221 217 217 226 231 231 233 235 240 246 246 246 250 256 261 263 267 270 272 275 275 271 268 270 273 274 275 277 275 275 277 281 286 290 293 296 299 301 304 305 306
224 224 225 226 226 226 225 224 223 223 222 221 222 224 225 225 227 227 227 226 225 224 225 226 226 226 226 225 226 226 227 229 230 230 230 229 229 230 232 231 228 223 218 215 217 221 220 220 226 230 231 231 229 227 234 243 245 245 249 256 262 266 268 272 276 275 269 267 270 273 273 274 273 270 273 279 284 288 292 295 298 301 304 305 304 305
225 225 225 226 227 227 228 227 225 223 222 223 224 225 225 226 228 229 229 227 225 225 225 226 226 226 224 223 224 225 226 228 228 229 229 229 229 229 229 228 228 228 225 222 222 223 222 223 225 229 232 234 233 231 234 242 247 245 243 241 247 258 263 268 272 271 268 268 272 273 270 269 270 272 275 280 284 289 293 296 299 301 303 304 303 304
223 225 226 228 228 228 229 229 226 223 221 221 223 224 224 225 226 227 228 226 225 224 223 226 226 224 224 222 222 223 224 226 227 228 229 229 229 228 228 227 228 228 226 226 227 226 225 226 226 229 233 236 237 237 239 244 247 246 239 224 228 251 261 263 265 267 267 269 271 270 266 266 269 271 274 279 284 289 292 294 297 299 301 301 302 302
220 219 222 225 226 227 228 227 226 224 222 221 221 222 222 223 223 224 223 222 222 221 221 224 223 221 222 221 221 222 222 224 226 227 228 229 229 228 227 227 227 226 225 226 227 226 226 228 229 231 234 237 240 241 242 245 247 244 234 219 219 236 250 255 260 265 268 270 269 266 264 265 266 269 272 277 283 288 289 291 294 296 297 299 300 302
219 218 220 221 222 223 225 225 225 224 223 222 221 222 221 221 221 223 223 221 220 217 217 221 219 216 219 219 219 221 221 223 225 226 228 228 228 227 225 225 226 226 226 226 226 226 225 226 228 231 233 236 239 240 241 244 247 246 235 224 222 224 233 247 255 260 267 271 272 270 267 266 265 267 271 275 280 285 287 289 291 293 296 298 301 303
219 219 221 222 222 222 221 220 222 223 221 220 221 222 222 220 219 220 221 220 219 216 215 218 217 215 218 220 220 221 221 222 224 225 227 227 227 226 224 225 225 225 226 227 227 226 226 225 225 228 231 233 235 237 240 241 243 246 239 232 231 230 232 240 248 257 267 273 277 276 271 267 266 268 271 274 277 281 284 288 291 294 297 299 301 303
218 218 220 222 223 223 221 218 218 220 220 218 219 220 221 220 218 219 220 218 218 217 214 216 217 214 217 220 221 222 221 221 223 224 226 226 225 224 224 224 224 225 225 227 227 226 228 228 228 229 230 232 234 236 239 240 241 244 241 236 235 236 238 243 252 262 269 273 276 276 272 268 266 268 272 274 276 281 286 290 293 296 298 300 302 303
218 218 220 221 221 222 222 219 218 218 218 218 218 219 218 218 217 218 218 217 218 216 212 214 215 213 216 218 219 221 221 221 222 223 224 225 224 224 225 225 225 225 226 226 226 226 227 228 229 231 233 232 233 236 240 242 242 242 240 238 238 241 245 252 258 263 266 269 271 272 273 269 264 267 274 276 279 283 287 290 293 296 298 299 301 302
219 219 220 222 222 222 222 220 218 217 216 217 218 218 218 218 217 216 216 215 216 214 210 211 212 212 214 216 218 220 220 221 223 224 225 225 225 226 226 227 226 226 227 228 227 226 227 227 227 230 231 231 231 233 237 241 243 242 241 241 243 246 249 253 258 262 263 266 267 269 270 265 260 265 272 276 279 283 287 290 293 295 296 298 300 301
219 219 221 222 222 221 219 217 216 215 215 215 215 215 217 217 216 216 215 214 215 213 209 210 212 212 214 216 218 219 220 222 224 224 224 225 226 227 227 227 227 226 227 227 227 226 227 227 228 230 231 232 232 230 231 238 242 242 243 245 247 248 250 254 258 262 265 267 267 267 265 260 257 262 268 273 277 282 285 288 291 293 295 297 298 299
219 219 220 221 220 219 217 215 215 215 215 214 213 213 213 213 213 214 215 214 215 212 208 209 212 213 214 217 219 219 220 222 224 224 224 224 225 226 226 226 225 225 226 226 225 225 225 224 224 226 229 233 235 231 227 233 240 242 244 246 247 248 250 254 258 262 264 266 265 264 262 258 257 260 266 271 276 280 283 286 289 292 294 296 297 297
218 218 217 217 217 216 215 214 213 213 214 213 213 214 214 212 211 211 212 212 212 210 207 209 213 214 215 218 219 218 219 222 224 224 223 222 223 225 225 225 224 225 226 225 224 223 224 225 223 222 225 230 234 231 227 230 238 245 246 246 247 249 252 255 258 261 263 263 263 263 261 259 259 262 266 271 275 278 281 285 288 291 293 295 296 297
217 217 215 214 214 213 213 214 214 214 214 214 214 214 215 214 212 211 209 208 208 207 207 209 212 213 215 218 219 218 217 220 223 223 222 221 222 224 225 225 225 225 224 223 222 221 222 223 223 222 224 228 232 233 232 234 240 246 248 247 248 250 252 256 260 262 263 263 263 261 260 260 263 266 270 273 276 278 281 285 288 291 293 294 295 296
216 215 214 213 212 211 212 214 216 216 215 214 213 213 214 214 214 213 210 207 207 206 205 207 210 213 215 217 219 219 217 218 221 222 222 221 221 223 224 224 224 224 223 221 220 220 221 221 222 223 225 227 230 232 234 237 241 244 247 249 251 252 254 257 260 262 264 264 265 264 264 265 267 270 273 275 277 279 282 285 288 290 292 293 294 295
215 214 214 212 210 210 210 210 211 212 213 213 213 213 214 213 213 213 211 208 207 207 205 206 210 213 215 217 219 219 217 217 220 222 222 221 220 222 223 224 224 224 223 221 221 221 222 222 223 226 226 227 230 232 234 238 241 243 246 249 252 254 255 257 260 262 265 267 268 270 270 271 272 273 274 276 277 279 282 285 287 289 291 292 293 293
213 212 212 211 209 209 210 210 209 209 209 211 212 212 214 213 212 212 209 207 207 207 205 207 209 212 215 216 217 219 217 217 220 222 223 223 221 221 223 223 224 223 223 223 223 223 223 223 224 227 227 227 231 235 238 240 244 248 251 253 257 259 260 262 263 263 264 266 267 269 271 272 273 275 277 279 280 281 282 284 286 288 290 291 291 292
210 210 210 209 209 209 209 210 210 210 209 208 209 210 211 212 211 210 209 206 205 205 206 207 209 212 214 214 215 217 217 217 219 221 223 224 223 223 223 224 225 225 224 224 224 226 226 225 226 228 230 230 233 236 239 242 247 254 259 261 263 265 265 265 263 260 260 262 265 267 270 272 274 276 279 281 281 282 283 284 286 288 289 289 289 290
207 207 207 208 208 208 208 209 211 211 211 210 210 210 210 210 209 208 207 205 203 204 206 207 208 212 215 214 214 215 216 216 217 219 221 223 224 224 224 225 226 226 226 226 227 228 228 228 227 228 230 232 235 238 242 246 252 260 266 266 266 266 265 263 259 257 259 262 264 267 270 271 273 276 278 280 282 283 284 286 287 288 288 289 289 289
206 206 206 207 207 207 207 209 210 211 212 213 212 211 210 210 208 207 206 203 201 203 205 206 208 211 214 215 214 214 215 215 215 216 218 221 222 224 225 226 226 227 227 228 228 229 230 229 228 228 230 231 234 236 239 241 246 255 263 264 262 260 260 258 256 255 258 261 264 267 269 270 272 274 276 279 281 283 284 286 287 288 288 289 289 289
207 207 207 208 207 206 207 209 211 212 213 213 213 213 212 211 209 208 206 203 201 203 204 205 207 210 212 214 215 214 215 216 215 215 216 218 220 221 222 224 226 226 227 227 228 229 229 228 228 228 230 232 234 236 235 234 234 240 248 251 250 247 248 251 254 256 258 261 263 266 268 270 271 272 274 277 280 282 283 284 285 286 287 288 288 289
207 207 208 208 208 207 207 209 211 212 213 213 213 213 213 212 210 207 206 204 202 203 204 205 207 209 211 213 214 215 215 215 215 215 215 215 217 218 220 222 223 225 225 225 226 227 227 226 226 227 228 230 232 233 232 230 230 234 239 243 246 246 248 253 258 261 263 264 266 268 270 271 272 273 274 276 278 280 281 282 283 284 285 286 287 288
208 208 208 208 208 208 208 210 211 211 212 212 212 212 211 211 210 207 205 204 203 203 204 205 207 209 211 212 214 215 214 214 215 216 216 216 216 217 218 220 221 224 226 226 225 225 224 221 219 219 222 224 225 226 225 224 226 233 237 239 242 246 249 252 257 262 264 266 267 269 270 271 272 273 274 275 276 277 279 280 281 283 284 285 287 288
209 209 209 210 209 209 210 211 211 211 211 211 211 211 210 209 208 206 205 204 203 203 204 205 207 210 211 213 214 216 216 215 215 217 219 219 218 218 218 219 220 222 225 226 225 224 222 219 215 215 219 222 223 224 224 224 226 232 237 239 241 245 248 251 254 258 260 262 264 265 266 267 269 270 272 273 275 276 277 278 280 282 284 286 287 288
209 208 208 209 210 210 211 212 212 211 211 211 211 210 209 208 206 204 204 204 204 204 205 206 207 210 212 214 215 216 217 217 216 217 219 220 220 220 220 220 221 221 222 224 224 222 220 219 218 219 222 223 223 224 226 228 229 233 237 240 243 246 248 250 252 254 257 260 262 263 264 266 267 268 270 272 273 275 276 278 280 282 284 285 286 287
208 207 206 207 208 210 210 211 211 211 211 210 210 209 208 206 205 204 203 204 203 204 206 206 207 210 212 214 216 217 218 218 218 218 219 220 221 221 221 221 221 222 222 222 222 221 219 218 219 221 223 224 225 226 228 231 232 234 237 240 244 246 248 249 251 254 257 259 261 263 264 266 267 268 270 271 273 275 277 279 280 282 283 284 285 286
207 206 206 206 207 208 209 209 209 210 210 209 207 207 206 205 203 203 203 203 203 204 205 207 208 209 212 213 215 217 219 219 219 219 219 220 221 222 222 222 221 221 220 220 220 222 222 221 221 222 224 225 228 230 231 232 233 235 238 241 244 248 250 252 254 256 258 260 262 264 265 266 267 269 270 272 274 276 277 279 280 281 282 283 284 284
206 206 206 205 206 208 209 208 208 209 209 207 205 204 204 202 201 202 203 204 205 205 205 206 207 209 211 213 214 216 218 219 220 220 220 220 221 222 222 223 222 221 220 220 221 223 225 226 226 226 226 228 231 234 236 237 238 240 242 245 248 250 253 255 257 259 261 262 264 265 266 267 268 269 271 273 274 276 277 278 279 281 282 282 283 284
205 205 205 205 204 205 207 208 208 208 207 205 203 202 201 200 199 201 203 204 206 207 207 207 208 209 211 212 213 215 216 218 220 220 221 222 222 223 223 223 223 222 221 222 223 223 225 229 231 231 232 233 235 238 242 245 247 249 250 251 252 254 256 258 259 261 262 263 264 266 267 268 269 270 272 273 275 276 277 278 279 280 281 282 283 283
204 204 204 204 203 203 205 206 207 206 205 203 201 200 199 198 199 201 204 205 206 208 208 209 210 211 212 213 214 215 217 219 220 220 221 222 224 225 225 225 224 224 223 223 225 225 227 230 233 236 238 240 242 244 247 250 252 254 256 257 258 259 261 262 263 264 264 265 265 266 267 268 269 271 272 274 275 277 278 279 280 281 281 281 282 283
202 202 203 203 202 201 203 205 206 205 203 201 200 199 199 198 199 203 206 206 206 206 207 208 210 211 213 214 216 217 219 221 222 221 221 222 224 225 226 226 226 226 226 227 228 230 232 234 237 240 242 244 246 248 250 252 254 256 259 261 262 263 264 265 265 265 266 266 267 268 268 269 270 272 273 275 277 278 279 280 281 282 282 282 282 283
200 200 201 202 202 201 201 204 205 204 203 201 201 201 200 200 202 205 207 208 207 207 207 208 210 212 213 215 216 218 220 222 223 224 224 225 226 227 227 228 229 231 232 232 233 235 237 239 241 243 245 247 249 251 253 255 256 258 260 261 263 264 265 265 266 266 267 267 268 269 270 270 271 273 275 276 278 278 279 281 282 284 284 283 282 281
200 200 200 200 201 201 201 202 203 203 202 202 202 203 203 203 206 208 209 209 208 208 209 210 211 212 214 215 217 218 220 222 224 225 226 227 228 229 230 231 232 233 235 236 237 239 240 242 244 246 248 250 252 254 255 256 257 258 259 261 262 263 264 265 266 268 269 270 271 271 272 273 274 276 277 278 278 279 280 281 283 283 283 281 280 280
200 200 200 200 201 202 203 203 203 203 202 201 202 204 205 207 209 211 212 212 211 210 210 211 212 213 214 216 217 219 220 222 224 225 226 227 228 229 231 232 234 235 237 238 240 241 243 244 246 249 251 253 254 255 256 257 259 260 261 262 263 263 264 265 267 268 270 271 272 273 274 275 277 278 278 278 279 280 281 282 283 283 282 280 280 280
201 201 201 202 203 204 205 205 205 205 204 203 204 205 206 208 211 213 214 215 214 213 212 213 214 214 215 216 218 219 221 222 223 225 226 227 228 230 232 234 235 237 239 240 242 243 245 247 249 251 253 254 255 257 258 259 260 261 261 262 263 264 265 265 266 267 268 270 271 272 273 275 276 277 277 278 279 280 281 282 282 282 281 280 280 281
200 201 202 202 203 205 206 207 208 207 206 206 206 206 207 209 211 213 214 216 216 216 215 215 216 216 217 218 219 220 221 223 224 226 227 228 230 232 234 236 238 240 242 243 245 247 248 250 252 253 254 255 256 257 259 260 261 261 262 263 264 265 266 266 266 266 267 268 268 269 270 272 273 274 276 277 278 279 280 281 281 281 281 281 282 283
200 200 201 202 203 205 206 208 209 210 210 209 208 208 208 210 211 212 214 215 216 217 217 217 218 218 219 219 221 222 223 224 226 227 229 230 232 234 237 240 242 243 244 245 246 248 249 251 252 253 255 256 257 258 260 261 262 263 264 264 265 265 266 267 267 267 267 267 268 269 270 271 272 273 274 276 277 279 280 280 280 281 281 282 284 286
202 201 201 202 203 204 206 208 209 210 211 212 211 211 211 212 213 213 214 215 215 216 217 217 218 220 221 221 222 224 225 226 227 229 230 232 233 236 238 240 241 242 244 245 246 248 249 250 252 254 255 257 258 259 260 261 262 264 265 266 266 266 266 265 264 264 266 268 269 271 271 272 272 272 274 275 277 278 279 280 281 282 283 285 286 287
205 204 204 203 204 204 206 207 209 210 211 212 212 213 213 214 215 215 216 216 217 217 217 217 218 219 221 223 224 225 226 227 229 230 232 233 234 236 238 240 242 244 246 247 248 249 250 252 253 255 256 258 260 261 262 263 263 264 265 265 265 266 266 265 263 262 264 267 270 272 273 273 273 274 274 276 277 278 279 281 283 284 285 286 286 286
208 207 207 207 206 206 207 208 210 211 212 213 213 214 214 214 216 217 217 218 219 219 219 219 219 220 221 223 224 226 227 228 229 230 232 233 234 235 238 240 244 247 249 250 250 251 252 253 254 256 257 259 260 262 263 263 263 263 263 263 263 264 266 266 264 262 261 263 266 270 272 274 275 276 277 278 279 281 282 283 284 284 284 285 285 285
Height
10554 10559 10566 10576 10581 10582 10584 10588 10591 10597 10607 10613 10614 10616 10618 10619 10625 10630 10637 10646 10649 10652 10657 10661 10664 10668 10672 10675 10678 10682 10688 10693 10697 10701 10704 10707 10711 10714 10716 10718 10721 10724 10725 10727 10729 10732 10735 10737 10740 10742 10744 10745 10745 10745 10746 10748 10750 10749 10748 10747 10748 10749 10748 10747 10745 10745 10744 10743 10744 10744 10744 10743 10743 10743 10743 10743 10743 10742 10741 10740 10739 10738 10737 10736 10735 10735
10548 10556 10565 10568 10567 10568 10573 10577 10581 10591 10599 10600 10601 10606 10611 10613 10618 10624 10633 10641 10644 10647 10652 10656 10659 10663 10667 10670 10674 10678 10683 10688 10692 10696 10700 10704 10708 10710 10712 10715 10718 10721 10723 10724 10727 10730 10732 10734 10736 10739 10740 10740 10740 10740 10742 10745 10746 10745 10744 10743 10743 10744 10743 10741 10740 10739 10739 10739 10740 10740 10739 10739 10738 10739 10739 10739 10738 10738 10737 10736 10735 10734 10733 10732 10732 10731
10544 10554 10557 10555 10557 10563 10568 10570 10574 10582 10585 10587 10592 10599 10605 10607 10612 10619 10627 10635 10638 10641 10647 10652 10654 10657 10662 10666 10670 10674 10679 10683 10686 10692 10698 10702 10705 10709 10711 10713 10717 10719 10720 10722 10726 10728 10729 10731 10733 10734 10735 10735 10736 10737 10740 10742 10743 10742 10741 10741 10741 10741 10739 10737 10736 10735 10734 10735 10735 10735 10734 10734 10734 10734 10734 10734 10734 10733 10733 10732 10731 10731 10730 10729 10728 10727
10540 10545 10545 10548 10555 10558 10559 10561 10567 10573 10576 10582 10588 10594 10599 10602 10607 10613 10619 10629 10633 10636 10644 10647 10648 10652 10658 10662 10666 10670 10673 10678 10683 10691 10698 10702 10704 10706 10708 10712 10715 10715 10717 10720 10723 10725 10728 10729 10730 10732 10732 10731 10732 10734 10736 10737 10738 10738 10738 10738 10739 10739 10736 10734 10733 10731 10731 10731 10731 10731 10730 10730 10730 10730 10730 10730 10730 10730 10730 10729 10728 10727 10726 10725 10725 10724
10531 10533 10537 10544 10546 10546 10548 10554 10560 10567 10572 10578 10584 10589 10593 10597 10600 10604 10614 10624 10627 10631 10638 10640 10641 10648 10653 10657 10662 10664 10668 10674 10679 10687 10696 10701 10702 10702 10705 10708 10710 10712 10715 10719 10721 10724 10727 10728 10731 10731 10726 10724 10726 10729 10732 10735 10736 10737 10737 10736 10737 10737 10734 10731 10730 10728 10727 10727 10727 10727 10726 10726 10726 10726 10726 10726 10726 10726 10726 10725 10724 10724 10723 10722 10721 10720
10521 10527 10534 10535 10533 10537 10542 10548 10555 10560 10565 10572 10578 10583 10588 10591 10593 10598 10608 10616 10618 10625 10631 10633 10638 10644 10648 10652 10657 10660 10664 10670 10675 10682 10689 10696 10698 10699 10703 10705 10708 10711 10714 10717 10721 10724 10728 10733 10733 10723 10714 10718 10725 10727 10729 10733 10737 10738 10737 10733 10733 10733 10730 10727 10726 10724 10724 10724 10724 10724 10723 10723 10723 10723 10723 10723 10723 10723 10723 10722 10721 10721 10720 10719 10718 10717
10514 10523 10525 10524 10527 10533 10538 10543 10549 10553 10558 10566 10572 10576 10581 10584 10586 10592 10601 10606 10610 10618 10626 10630 10635 10640 10643 10648 10652 10656 10661 10666 10671 10677 10683 10689 10694 10698 10702 10705 10708 10710 10713 10717 10721 10726 10732 10732 10723 10711 10710 10719 10724 10724 10727 10732 10736 10737 10734 10730 10728 10728 10726 10724 10722 10721 10720 10720 10720 10720 10720 10720 10719 10719 10720 10719 10719 10719 10719 10719 10718 10717 10717 10716 10715 10714
10511 10517 10515 10517 10523 10528 10533 10539 10543 10547 10552 10558 10563 10568 10573 10575 10577 10585 10592 10596 10604 10614 10623 10627 10630 10634 10640 10644 10649 10654 10658 10662 10667 10673 10678 10683 10688 10693 10698 10701 10703 10707 10712 10717 10723 10730 10730 10722 10714 10711 10713 10718 10720 10721 10724 10728 10732 10732 10729 10726 10724 10723 10721 10719 10718 10716 10716 10716 10716 10717 10716 10716 10716 10716 10716 10716 10716 10715 10715 10715 10715 10714 10713 10713 10713 10712
10504 10508 10507 10511 10517 10522 10528 10532 10536 10540 10543 10550 10557 10560 10564 10566 10570 10578 10582 10588 10599 10610 10616 10620 10625 10631 10637 10641 10646 10650 10654 10660 10664 10668 10672 10677 10681 10685 10689 10693 10696 10701 10709 10718 10727 10728 10720 10716 10717 10712 10708 10711 10714 10716 10719 10722 10726 10725 10723 10722 10721 10719 10716 10715 10714 10712 10712 10711 10712 10712 10712 10712 10712 10712 10712 10712 10712 10711 10711 10711 10711 10711 10711 10710 10710 10709
10496 10498 10499 10504 10510 10515 10520 10525 10530 10531 10536 10547 10550 10550 10555 10559 10563 10570 10575 10583 10594 10604 10610 10617 10623 10629 10634 10638 10642 10647 10653 10657 10660 10662 10666 10670 10674 10677 10681 10685 10689 10696 10707 10717 10720 10711 10706 10711 10709 10698 10696 10703 10707 10712 10717 10719 10719 10718 10718 10717 10716 10714 10712 10711 10710 10708 10707 10707 10708 10708 10708 10708 10708 10708 10708 10708 10708 10708 10708 10708 10708 10708 10707 10707 10706 10705
10489 10490 10492 10498 10503 10508 10514 10519 10521 10522 10532 10542 10540 10540 10547 10552 10557 10564 10571 10579 10589 10601 10609 10615 10621 10624 10629 10634 10638 10644 10649 10651 10653 10656 10660 10664 10667 10671 10675 10678 10683 10690 10699 10702 10695 10688 10692 10693 10684 10680 10687 10695 10701 10709 10714 10713 10712 10712 10713 10713 10712 10710 10708 10706 10705 10704 10703 10703 10703 10703 10704 10704 10704 10704 10704 10704 10704 10704 10704 10704 10704 10704 10704 10703 10703 10702
10483 10484 10488 10493 10497 10503 10508 10511 10513 10518 10529 10533 10531 10535 10542 10547 10552 10559 10566 10575 10589 10602 10607 10611 10615 10619 10625 10631 10636 10641 10644 10645 10648 10651 10655 10659 10661 10664 10668 10672 10677 10683 10687 10685 10680 10679 10683 10679 10671 10675 10684 10690 10698 10704 10704 10703 10704 10706 10708 10708 10707 10705 10703 10702 10701 10700 10699 10699 10699 10699 10700 10701 10701 10701 10700 10700 10700 10700 10701 10701 10701 10701 10700 10700 10699 10698
10475 10478 10484 10488 10493 10498 10501 10505 10510 10517 10524 10526 10526 10531 10539 10544 10549 10556 10565 10578 10592 10600 10601 10606 10610 10615 10623 10629 10632 10637 10639 10641 10644 10646 10650 10653 10656 10659 10663 10667 10672 10676 10677 10677 10675 10673 10674 10673 10675 10680 10683 10687 10693 10696 10697 10696 10698 10702 10704 10705 10703 10700 10698 10697 10697 10696 10695 10695 10695 10695 10696 10697 10697 10697 10696 10696 10697 10697 10697 10697 10697 10697 10697 10697 10696 10695
10469 10474 10480 10484 10488 10493 10497 10502 10508 10515 10520 10523 10524 10529 10536 10541 10548 10558 10569 10580 10588 10592 10596 10601 10605 10612 10620 10624 10628 10632 10634 10636 10638 10641 10644 10647 10650 10653 10658 10663 10667 10669 10670 10671 10669 10667 10669 10673 10677 10680 10681 10684 10687 10690 10692 10692 10694 10698 10699 10700 10699 10695 10693 10693 10692 10692 10691 10692 10692 10692 10692 10693 10693 10693 10693 10693 10693 10693 10692 10692 10692 10693 10693 10693 10692 10692
10464 10472 10478 10480 10484 10489 10493 10498 10504 10509 10512 10516 10519 10523 10529 10537 10547 10557 10565 10573 10579 10585 10592 10596 10601 10610 10615 10618 10623 10625 10628 10631 10633 10636 10639 10641 10645 10649 10654 10658 10660 10661 10663 10663 10663 10664 10668 10671 10675 10678 10678 10681 10684 10686 10688 10689 10691 10693 10694 10695 10693 10690 10689 10688 10688 10689 10688 10688 10688 10688 10688 10689 10689 10689 10689 10689 10689 10689 10688 10688 10688 10689 10689 10689 10689 10688
10457 10464 10468 10471 10477 10483 10487 10491 10496 10501 10505 10509 10511 10515 10524 10535 10542 10548 10555 10564 10570 10579 10587 10589 10596 10605 10608 10612 10616 10618 10622 10625 10626 10630 10633 10636 10640 10645 10650 10652 10652 10653 10655 10656 10658 10660 10665 10669 10673 10674 10674 10677 10680 10682 10684 10685 10687 10688 10689 10689 10686 10685 10685 10684 10684 10685 10684 10684 10684 10684 10685 10685 10686 10685 10685 10685 10685 10684 10684 10684 10684 10685 10685 10685 10685 10684
10451 10456 10459 10464 10470 10474 10478 10484 10490 10495 10499 10503 10507 10514 10522 10529 10535 10542 10551 10558 10565 10573 10579 10581 10589 10599 10601 10605 10608 10611 10616 10619 10621 10624 10627 10630 10636 10640 10644 10645 10646 10648 10650 10651 10654 10657 10660 10665 10667 10667 10669 10672 10673 10675 10679 10681 10682 10684 10685 10684 10681 10679 10679 10679 10680 10681 10681 10680 10681 10681 10682 10682 10682 10681 10681 10681 10681 10680 10680 10680 10680 10681 10681 10680 10680 10680
10445 10451 10456 10459 10462 10465 10470 10477 10483 10486 10490 10499 10507 10512 10515 10521 10531 10539 10544 10552 10560 10567 10573 10578 10586 10594 10596 10599 10603 10607 10611 10613 10615 10618 10621 10626 10631 10635 10638 10639 10641 10644 10645 10648 10651 10653 10656 10659 10661 10662 10664 10665 10667 10670 10673 10675 10677 10678 10679 10680 10678 10676 10675 10675 10676 10676 10677 10677 10677 10678 10678 10678 10678 10678 10678 10678 10677 10676 10676 10676 10676 10676 10676 10676 10676 10676
10438 10446 10449 10451 10455 10460 10464 10469 10474 10479 10488 10497 10500 10501 10509 10520 10529 10533 10539 10550 10557 10563 10572 10577 10583 10590 10593 10595 10598 10601 10604 10606 10608 10611 10616 10621 10625 10628 10631 10632 10636 10640 10642 10644 10647 10650 10653 10655 10657 10657 10658 10661 10663 10666 10668 10669 10671 10672 10673 10674 10674 10673 10672 10671 10672 10673 10673 10673 10673 10675 10675 10675 10675 10675 10675 10674 10673 10672 10672 10672 10672 10672 10672 10672 10672 10671
10433 10439 10441 10444 10449 10453 10458 10465 10471 10478 10485 10489 10491 10497 10508 10515 10521 10527 10537 10547 10552 10558 10568 10573 10579 10586 10589 10590 10592 10594 10597 10599 10602 10606 10610 10615 10620 10623 10625 10629 10634 10636 10638 10640 10643 10647 10649 10651 10653 10654 10655 10656 10658 10660 10662 10663 10664 10665 10666 10668 10669 10669 10668 10668 10669 10669 10669 10669 10670 10670 10671 10672 10672 10672 10671 10669 10669 10668 10668 10668 10668 10668 10668 10668 10668 10667
10428 10433 10436 10439 10445 10451 10458 10465 10470 10474 10478 10483 10489 10498 10504 10509 10516 10525 10533 10540 10546 10554 10563 10568 10574 10579 10582 10583 10584 10586 10590 10593 10597 10602 10607 10612 10616 10619 10622 10627 10631 10633 10635 10637 10641 10644 10645 10646 10648 10649 10650 10651 10651 10653 10655 10656 10657 10658 10660 10662 10663 10664 10664 10665 10665 10665 10665 10666 10666 10666 10667 10668 10668 10667 10666 10665 10665 10664 10664 10664 10664 10664 10664 10664 10664 10663
10422 10428 10431 10436 10443 10449 10453 10457 10461 10466 10472 10478 10484 10490 10496 10504 10513 10521 10528 10537 10543 10551 10559 10564 10568 10572 10575 10577 10577 10581 10587 10590 10593 10599 10605 10610 10612 10615 10619 10624 10627 10629 10630 10633 10637 10639 10640 10641 10642 10644 10645 10645 10644 10645 10646 10649 10651 10652 10654 10656 10658 10659 10659 10660 10660 10660 10661 10661 10661 10662 10663 10663 10663 10662 10662 10661 10661 10661 10660 10661 10661 10660 10660 10660 10660 10659
10417 10422 10427 10433 10437 10440 10444 10450 10456 10462 10466 10470 10475 10481 10487 10497 10507 10517 10526 10534 10539 10546 10556 10561 10564 10567 10571 10571 10572 10578 10584 10585 10589 10595 10601 10606 10608 10610 10614 10618 10621 10623 10624 10629 10633 10634 10633 10632 10634 10636 10639 10640 10640 10640 10641 10643 10645 10647 10649 10651 10653 10654 10655 10656 10656 10656 10657 10657 10657 10658 10659 10659 10659 10659 10658 10658 10657 10657 10657 10657 10657 10656 10656 10656 10656 10655
10411 10416 10421 10425 10429 10434 10440 10444 10448 10452 10458 10464 10472 10480 10488 10497 10506 10512 10518 10525 10533 10543 10552 10555 10559 10563 10566 10566 10568 10574 10579 10581 10585 10591 10597 10601 10603 10605 10608 10612 10615 10617 10621 10626 10628 10628 10626 10625 10627 10631 10634 10636 10638 10638 10638 10640 10642 10644 10645 10647 10649 10651 10651 10652 10652 10652 10653 10653 10653 10654 10654 10655 10655 10655 10655 10654 10654 10653 10653 10653 10653 10652 10652 10652 10651 10651
10406 10410 10415 10419 10423 10429 10434 10437 10442 10451 10459 10468 10476 10483 10489 10495 10499 10502 10509 10519 10529 10538 10544 10549 10553 10557 10559 10561 10564 10569 10574 10578 10581 10585 10591 10595 10597 10600 10603 10606 10609 10612 10617 10621 10622 10621 10619 10619 10623 10627 10630 10633 10635 10636 10637 10639 10641 10643 10643 10645 10647 10648 10648 10648 10648 10649 10649 10649 10650 10650 10650 10651 10651 10651 10651 10650 10650 10649 10649 10649 10648 10648 10648 10647 10647 10646
10400 10406 10410 10415 10421 10428 10433 10440 10449 10457 10463 10468 10474 10478 10482 10487 10494 10501 10509 10518 10526 10532 10538 10543 10548 10551 10554 10557 10560 10565 10570 10574 10576 10580 10585 10589 10592 10595 10597 10601 10604 10607 10611 10614 10614 10613 10613 10615 10619 10622 10626 10630 10631 10633 10635 10637 10639 10641 10642 10643 10644 10644 10644 10644 10644 10645 10645 10645 10646 10646 10646 10647 10647 10647 10647 10646 10645 10644 10644 10644 10643 10643 10643 10643 10642 10642
10398 10403 10408 10413 10419 10424 10429 10435 10442 10449 10455 10461 10467 10472 10476 10483 10490 10498 10507 10516 10522 10527 10534 10540 10543 10546 10550 10554 10556 10561 10566 10570 10572 10575 10579 10583 10587 10590 10592 10595 10598 10601 10605 10607 10608 10609 10611 10614 10617 10620 10623 10627 10629 10631 10633 10635 10637 10639 10640 10640 10640 10640 10640 10640 10640 10640 10640 10641 10640 10641 10642 10642 10642 10642 10642 10641 10640 10639 10639 10639 10639 10638 10638 10638 10637 10637
10396 10401 10406 10412 10417 10421 10425 10430 10436 10442 10447 10454 10461 10466 10472 10479 10485 10493 10502 10510 10517 10525 10532 10535 10538 10542 10545 10548 10551 10556 10561 10566 10568 10570 10574 10579 10582 10585 10587 10590 10592 10596 10599 10602 10604 10605 10607 10611 10615 10617 10621 10626 10628 10631 10633 10634 10635 10636 10636 10636 10636 10636 10636 10635 10635 10635 10635 10635 10635 10636 10637 10638 10638 10638 10637 10636 10635 10634 10634 10634 10634 10634 10634 10633 10632 10632
10393 10398 10403 10408 10413 10418 10423 10428 10433 10437 10441 10447 10453 10459 10465 10473 10481 10489 10497 10505 10513 10521 10526 10529 10534 10536 10538 10541 10546 10551 10557 10561 10564 10567 10571 10574 10578 10581 10583 10585 10588 10591 10594 10597 10600 10601 10604 10609 10614 10617 10620 10624 10627 10629 10631 10633 10634 10634 10633 10633 10632 10631 10630 10629 10629 10629 10629 10629 10630 10631 10633 10633 10633 10633 10632 10631 10630 10630 10630 10630 10629 10629 10629 10628 10627 10627
10389 10394 10399 10404 10409 10415 10420 10425 10429 10435 10440 10445 10449 10454 10460 10467 10475 10483 10490 10498 10507 10513 10518 10524 10529 10530 10532 10537 10543 10548 10552 10556 10560 10563 10567 10570 10573 10576 10579 10581 10583 10586 10589 10593 10595 10597 10601 10606 10611 10614 10617 10621 10625 10628 10630 10632 10634 10632 10630 10629 10628 10626 10622 10621 10621 10622 10623 10623 10625 10627 10628 10628 10628 10627 10627 10626 10625 10625 10625 10625 10625 10624 10623 10623 10622 10621
10385 10390 10395 10400 10405 10411 10417 10422 10427 10432 10437 10442 10447 10453 10458 10464 10471 10477 10484 10492 10500 10506 10512 10519 10523 10525 10529 10534 10540 10544 10547 10550 10554 10559 10563 10566 10569 10572 10575 10577 10579 10582 10585 10588 10590 10593 10597 10602 10607 10612 10615 10620 10624 10626 10629 10632 10634 10632 10627 10623 10621 10618 10614 10612 10614 10616 10617 10619 10621 10622 10622 10622 10622 10622 10621 10620 10620 10620 10620 10620 10619 10619 10618 10618 10617 10616
10383 10388 10393 10397 10401 10407 10413 10418 10423 10428 10434 10439 10445 10450 10456 10462 10468 10475 10482 10490 10497 10502 10507 10513 10517 10521 10526 10530 10535 10539 10542 10545 10550 10554 10558 10561 10563 10567 10570 10572 10574 10577 10580 10583 10585 10589 10593 10599 10605 10610 10615 10619 10620 10622 10626 10630 10631 10628 10620 10614 10612 10612 10609 10607 10610 10613 10614 10616 10617 10617 10617 10617 10617 10617 10616 10615 10614 10614 10614 10614 10614 10614 10613 10612 10611 10610
10380 10385 10389 10393 10398 10404 10410 10414 10419 10424 10429 10434 10440 10447 10453 10459 10465 10472 10480 10486 10491 10496 10502 10508 10513 10516 10520 10525 10529 10533 10536 10540 10544 10548 10552 10555 10558 10561 10564 10567 10570 10572 10575 10578 10582 10585 10591 10598 10603 10608 10612 10615 10615 10616 10620 10623 10622 10617 10610 10606 10607 10608 10607 10606 10607 10609 10610 10612 10613 10613 10613 10613 10612 10612 10611 10610 10609 10609 10608 10608 10608 10608 10608 10607 10606 10605
10377 10381 10385 10390 10396 10401 10406 10409 10413 10418 10423 10430 10436 10442 10448 10454 10461 10468 10474 10480 10485 10491 10498 10503 10507 10510 10514 10519 10522 10525 10530 10535 10539 10543 10547 10550 10554 10557 10560 10563 10566 10568 10571 10575 10579 10583 10588 10592 10597 10602 10605 10605 10605 10606 10609 10610 10608 10605 10602 10602 10603 10603 10603 10604 10604 10604 10606 10607 10608 10608 10608 10607 10607 10606 10605 10604 10604 10603 10602 10602 10601 10602 10602 10601 10600 10599
10375 10379 10384 10388 10393 10397 10401 10404 10408 10414 10420 10426 10431 10436 10443 10450 10456 10463 10469 10475 10481 10487 10492 10497 10501 10506 10510 10514 10517 10522 10527 10532 10537 10540 10543 10547 10551 10554 10557 10560 10563 10565 10569 10573 10577 10580 10585 10588 10591 10593 10593 10593 10594 10596 10598 10599 10599 10597 10597 10597 10598 10598 10599 10600 10600 10600 10601 10601 10602 10602 10602 10602 10601 10599 10599 10598 10597 10597 10596 10596 10595 10595 10595 10594 10593 10592
10373 10377 10381 10385 10390 10393 10397 10401 10407 10413 10417 10421 10426 10432 10439 10444 10450 10457 10464 10470 10477 10483 10488 10492 10498 10502 10506 10510 10515 10520 10524 10528 10532 10535 10539 10543 10547 10551 10554 10556 10557 10561 10566 10570 10574 10579 10583 10585 10585 10584 10583 10585 10588 10591 10592 10592 10593 10592 10592 10592 10593 10594 10594 10595 10596 10596 10596 10596 10596 10596 10595 10595 10594 10593 10592 10591 10591 10590 10590 10590 10589 10589 10588 10587 10586 10585
10370 10374 10378 10383 10387 10390 10393 10398 10404 10408 10411 10416 10422 10428 10434 10440 10446 10452 10459 10466 10472 10478 10484 10489 10495 10499 10503 10507 10512 10515 10518 10522 10526 10530 10534 10537 10541 10544 10547 10550 10553 10557 10562 10566 10569 10572 10573 10574 10574 10575 10577 10581 10584 10586 10586 10587 10587 10588 10588 10588 10588 10589 10590 10591 10591 10591 10591 10590 10590 10589 10589 10588 10587 10586 10585 10584 10584 10584 10584 10583 10583 10582 10581 10580 10579 10578
10368 10372 10376 10379 10383 10386 10389 10394 10399 10403 10408 10413 10419 10424 10430 10436 10443 10449 10456 10462 10467 10473 10479 10485 10490 10494 10499 10503 10506 10509 10514 10518 10521 10524 10527 10531 10534 10537 10540 10544 10547 10551 10556 10559 10560 10561 10563 10566 10568 10570 10573 10577 10579 10580 10581 10582 10582 10583 10584 10584 10585 10585 10586 10586 10586 10585 10585 10584 10583 10583 10582 10581 10580 10579 10579 10578 10578 10577 10577 10576 10576 10575 10574 10573 10572 10571
10366 10370 10374 10377 10380 10384 10388 10392 10396 10400 10405 10409 10414 10420 10426 10432 10439 10446 10453 10459 10464 10469 10474 10478 10484 10488 10492 10496 10500 10504 10508 10512 10514 10516 10520 10523 10526 10529 10533 10537 10541 10545 10550 10553 10554 10557 10560 10563 10565 10568 10571 10573 10574 10575 10576 10578 10579 10580 10580 10581 10581 10581 10581 10581 10580 10580 10579 10578 10577 10576 10575 10574 10573 10573 10572 10572 10571 10570 10570 10569 10569 10568 10567 10566 10565 10564
10364 10367 10371 10374 10378 10381 10385 10389 10392 10396 10401 10405 10410 10416 10422 10429 10437 10444 10450 10456 10461 10465 10469 10474 10478 10481 10485 10489 10494 10498 10501 10504 10506 10510 10514 10517 10520 10524 10528 10532 10536 10540 10545 10548 10550 10554 10556 10559 10561 10564 10566 10568 10568 10570 10572 10573 10574 10575 10575 10575 10576 10576 10576 10576 10575 10574 10573 10572 10570 10569 10568 10567 10567 10566 10566 10565 10565 10564 10563 10562 10562 10561 10560 10559 10558 10557
10361 10364 10368 10372 10375 10378 10381 10385 10389 10393 10398 10404 10409 10414 10421 10428 10436 10442 10446 10450 10453 10458 10463 10469 10473 10478 10482 10486 10489 10492 10495 10498 10501 10505 10509 10513 10517 10521 10524 10528 10532 10536 10540 10543 10546 10549 10552 10554 10556 10559 10561 10562 10562 10564 10566 10568 10568 10568 10568 10569 10569 10570 10570 10569 10568 10567 10566 10564 10563 10562 10561 10560 10560 10560 10559 10558 10558 10557 10556 10555 10554 10553 10552 10551 10550 10549
10359 10362 10366 10369 10372 10375 10379 10383 10387 10392 10398 10403 10408 10414 10420 10427 10432 10435 10437 10439 10444 10450 10456 10462 10467 10473 10477 10481 10485 10489 10492 10495 10497 10501 10505 10509 10513 10517 10520 10524 10527 10531 10535 10538 10542 10544 10547 10550 10552 10553 10554 10555 10556 10558 10560 10561 10561 10561 10561 10561 10562 10562 10562 10561 10560 10559 10558 10556 10554 10553 10553 10552 10552 10552 10552 10551 10551 10549 10548 10547 10546 10545 10543 10543 10542 10541
10357 10360 10363 10367 10370 10373 10376 10381 10386 10392 10397 10402 10407 10412 10418 10423 10426 10427 10429 10434 10440 10447 10452 10457 10462 10467 10472 10477 10482 10485 10488 10491 10494 10498 10503 10507 10510 10513 10517 10521 10524 10527 10530 10534 10537 10540 10542 10544 10546 10547 10547 10548 10550 10552 10553 10554 10554 10554 10554 10554 10554 10554 10553 10551 10550 10549 10548 10547 10545 10544 10544 10544 10544 10544 10544 10544 10543 10542 10541 10540 10539 10537 10536 10535 10534 10533
10354 10357 10361 10364 10368 10371 10373 10377 10382 10388 10393 10399 10404 10410 10414 10418 10420 10423 10427 10433 10439 10444 10450 10454 10459 10463 10469 10473 10477 10480 10484 10487 10490 10494 10499 10503 10506 10510 10514 10517 10519 10522 10525 10528 10531 10534 10536 10538 10539 10539 10540 10542 10545 10546 10546 10547 10547 10548 10547 10547 10546 10546 10545 10543 10541 10540 10539 10538 10536 10536 10535 10535 10535 10536 10536 10535 10535 10534 10534 10533 10532 10531 10530 10528 10527 10526
10353 10356 10359 10362 10365 10368 10371 10375 10379 10385 10391 10396 10401 10406 10411 10415 10418 10422 10426 10431 10436 10442 10446 10451 10455 10460 10464 10468 10472 10476 10480 10483 10486 10490 10494 10498 10502 10505 10508 10511 10514 10516 10519 10522 10524 10526 10529 10530 10531 10531 10533 10536 10538 10538 10539 10539 10540 10540 10540 10539 10538 10538 10537 10536 10534 10533 10531 10530 10528 10527 10527 10526 10527 10528 10528 10527 10527 10527 10527 10526 10525 10524 10523 10522 10521 10519
10352 10355 10358 10361 10365 10368 10372 10375 10379 10384 10390 10395 10399 10404 10408 10412 10416 10420 10424 10429 10433 10438 10443 10447 10452 10456 10460 10463 10468 10471 10474 10477 10481 10485 10489 10493 10497 10500 10503 10506 10508 10510 10513 10515 10517 10519 10522 10523 10523 10524 10527 10529 10530 10530 10531 10532 10532 10533 10532 10531 10529 10528 10528 10527 10527 10525 10524 10523 10522 10521 10520 10519 10520 10520 10520 10520 10520 10520 10520 10519 10519 10517 10516 10515 10514 10513
10351 10354 10358 10361 10365 10368 10371 10374 10378 10383 10388 10392 10397 10401 10405 10408 10412 10416 10421 10425 10429 10434 10439 10443 10448 10451 10455 10459 10463 10466 10469 10472 10476 10481 10485 10489 10493 10497 10499 10501 10503 10505 10506 10508 10511 10513 10515 10515 10516 10517 10519 10521 10522 10522 10523 10524 10524 10524 10524 10523 10521 10519 10518 10518 10518 10517 10517 10516 10515 10515 10514 10514 10514 10514 10513 10513 10513 10513 10513 10512 10512 10511 10510 10509 10507 10506
10350 10353 10357 10360 10363 10366 10369 10373 10377 10381 10385 10389 10393 10397 10401 10404 10408 10411 10415 10420 10424 10429 10434 10438 10443 10447 10450 10454 10458 10461 10464 10468 10473 10478 10482 10485 10490 10493 10495 10496 10497 10497 10497 10499 10503 10505 10506 10507 10508 10509 10511 10512 10513 10515 10516 10516 10516 10515 10515 10515 10513 10512 10511 10509 10508 10508 10508 10508 10508 10508 10508 10508 10508 10508 10508 10507 10507 10506 10506 10505 10505 10504 10503 10502 10501 10499
10348 10351 10354 10358 10361 10364 10368 10371 10374 10378 10382 10386 10390 10393 10397 10400 10403 10407 10411 10415 10419 10423 10428 10433 10437 10441 10445 10449 10452 10456 10460 10465 10470 10474 10478 10481 10486 10489 10489 10488 10486 10484 10486 10491 10495 10496 10498 10499 10501 10501 10502 10504 10506 10507 10508 10508 10508 10507 10507 10506 10505 10504 10503 10502 10501 10501 10500 10500 10501 10502 10502 10502 10502 10502 10502 10501 10500 10500 10499 10499 10498 10497 10496 10495 10494 10492
10346 10349 10352 10355 10358 10361 10364 10367 10370 10373 10376 10380 10383 10388 10392 10396 10399 10403 10408 10411 10415 10419 10423 10427 10431 10435 10439 10443 10447 10451 10456 10461 10465 10469 10472 10476 10480 10482 10480 10478 10476 10477 10481 10486 10488 10488 10490 10493 10494 10494 10496 10497 10499 10500 10501 10501 10501 10500 10500 10499 10497 10496 10496 10495 10496 10496 10496 10495 10495 10495 10496 10496 10496 10496 10495 10495 10494 10494 10493 10493 10492 10491 10489 10488 10487 10485
10344 10346 10349 10352 10355 10359 10361 10364 10367 10369 10372 10375 10379 10383 10387 10391 10394 10399 10403 10407 10411 10415 10419 10423 10426 10430 10433 10437 10442 10446 10450 10455 10459 10462 10466 10470 10473 10473 10471 10471 10473 10474 10476 10478 10480 10482 10484 10487 10487 10488 10489 10491 10493 10493 10493 10494 10494 10493 10492 10492 10491 10490 10490 10489 10490 10490 10491 10491 10490 10490 10490 10489 10489 10489 10488 10488 10488 10488 10487 10486 10485 10484 10483 10481 10480 10478